Weather History for Southampton, United Kingdom

Change the Weather History Date:

Tuesday, May 6, 2014

  Actual Average Record
Temperature  
Mean Temperature 56 °F -  
Max Temperature 60 °F 61 °F 75 °F (2000)
Min Temperature 51 °F 46 °F 35 °F (1997)
Degree Days  
Heating Degree Days 10    
Growing Degree Days 6 (Base 50)    
Moisture  
Dew Point 45 °F    
Average Humidity 68    
Maximum Humidity 88    
Minimum Humidity 51    
Precipitation  
Precipitation 0.00 in - - ()
Sea Level Pressure  
Sea Level Pressure 29.72 in    
Wind  
Wind Speed 10 mph ()    
Max Wind Speed 16 mph    
Max Gust Speed -    
Visibility 6.2 miles    
Events      
Averages and records for this station are not official NWS values.
T = Trace of Precipitation, MM = Missing Value Source: Averaged Metar Reports

Daily Weather History Graph

Daily Weather History Graph

Search for Another Location

Airport:

Trip Planner

Search our weather history database for the weather conditions in past years. The results will help you decide how hot, cold, wet, or windy it might be!

Date:

Astronomy

May. 06, 2014 Rise Set
Actual Time 5:30 AM BST 8:34 PM BST
Civil Twilight 4:51 AM BST 9:13 PM BST
Nautical Twilight 4:01 AM BST 10:04 PM BST
Astronomical Twilight 2:57 AM BST 11:09 PM BST
Moon 11:39 AM BST (5/6) 1:40 AM BST (5/6)
Length of Visible Light 16h 21m
Length of Day
15h 04m
Waxing Crescent, 44% of the Moon is Illuminated
May 6
Waxing Crescent
May 7
First Quarter
May 14
Full
May 21
Last Quarter
May 28
New

Hourly Weather History & Observations

Time (BST) Temp. Dew Point Humidity Pressure Visibility Wind Dir Wind Speed Gust Speed Precip Events Conditions
5:50 AM 53.6 °F 50.0 °F 88% 29.68 in 6.2 mi SW 10.4 mph - N/A   Light Drizzle
6:20 AM 53.6 °F 50.0 °F 88% 29.68 in 6.2 mi SW 8.1 mph - N/A   Light Drizzle
6:50 AM 53.6 °F 50.0 °F 88% 29.71 in 6.2 mi SW 8.1 mph - N/A   Scattered Clouds
7:20 AM 53.6 °F 50.0 °F 88% 29.71 in 6.2 mi WSW 5.8 mph - N/A   Scattered Clouds
7:50 AM 53.6 °F 46.4 °F 77% 29.71 in 6.2 mi WSW 6.9 mph - N/A   Scattered Clouds
8:20 AM 53.6 °F 46.4 °F 77% 29.71 in 6.2 mi West 8.1 mph - N/A   Scattered Clouds
12:50 PM 59.0 °F 41.0 °F 51% 29.74 in 6.2 mi SW 11.5 mph - N/A   Scattered Clouds
1:20 PM 59.0 °F 44.6 °F 59% 29.74 in 6.2 mi WSW 12.7 mph - N/A   Partly Cloudy
1:50 PM 60.8 °F 44.6 °F 55% 29.74 in 6.2 mi SSW 16.1 mph - N/A   Partly Cloudy
2:20 PM 59.0 °F 44.6 °F 59% 29.74 in 6.2 mi SSW 16.1 mph - N/A   Partly Cloudy
3:20 PM 57.2 °F 44.6 °F 63% 29.71 in 6.2 mi SSW 13.8 mph - N/A   Partly Cloudy
3:50 PM 59.0 °F 46.4 °F 63% 29.71 in 6.2 mi South 16.1 mph - N/A   Partly Cloudy
4:20 PM 57.2 °F 44.6 °F 63% 29.71 in 6.2 mi SSW 15.0 mph - N/A   Partly Cloudy
4:50 PM 59.0 °F 42.8 °F 55% 29.71 in 6.2 mi SW 11.5 mph - N/A   Partly Cloudy
5:20 PM 59.0 °F 42.8 °F 55% 29.71 in 6.2 mi WSW 11.5 mph - N/A   Partly Cloudy
5:50 PM 59.0 °F 42.8 °F 55% 29.71 in 6.2 mi SW 12.7 mph - N/A   Partly Cloudy
6:20 PM 57.2 °F 42.8 °F 59% 29.71 in 6.2 mi SW 16.1 mph - N/A   Partly Cloudy
6:50 PM 57.2 °F 41.0 °F 55% 29.71 in 6.2 mi SW 15.0 mph - N/A   Partly Cloudy
7:20 PM 55.4 °F 42.8 °F 63% 29.71 in 6.2 mi SW 13.8 mph - N/A   Partly Cloudy
7:50 PM 53.6 °F 44.6 °F 72% 29.74 in 6.2 mi SW 13.8 mph - N/A   Partly Cloudy
8:20 PM 53.6 °F 44.6 °F 72% 29.74 in 6.2 mi SW 11.5 mph - N/A   Scattered Clouds
8:50 PM 53.6 °F 44.6 °F 72% 29.74 in 6.2 mi SW 10.4 mph - N/A   Scattered Clouds
9:20 PM 51.8 °F 44.6 °F 76% 29.74 in 6.2 mi SW 9.2 mph - N/A   Scattered Clouds
9:50 PM 51.8 °F 44.6 °F 76% 29.74 in 6.2 mi SW 8.1 mph - N/A   Partly Cloudy
10:20 PM 51.8 °F 46.4 °F 82% 29.74 in 6.2 mi SW 10.4 mph - N/A   Partly Cloudy